Flag for Germany Weather past 2 weeks in Pulheim, North Rhine-Westphalia, Germany

Now
55 °F

Partly sunny.


Feels Like: 55 °F
Forecast: 47 / 59 °F
Wind: 1 mph from South

Location: Noervenich

Current Time: Oct 23, 2014 at 5:56:45 PM

Latest Report: Oct 23, 2014 at 5:20 PM


Visibility: N/A

Pressure: 30.21 "Hg

Humidity: 77%

Dew point: 48 °F

Location of PulheimLocation

Historic Weather in Pulheim — Graph

°F

Pulheim temperature yesterday

Maximum temperature yesterday: 52 °F (at 2:20 PM)
Minimum temperature yesterday: 43 °F (at 3:20 AM)
Average temperature yesterday: 47 °F

Past Weeks' High & Low Weather Summary

 TemperatureHumidityPressure
High75 °F (Oct 19, 2:20 PM)100% (Oct 8, 10:47 PM)30.24 "Hg (Oct 8, 10:47 PM)
Low43 °F (Oct 22, 3:20 AM)46% (Oct 14, 2:20 PM)29.53 "Hg (Oct 21, 4:20 PM)
Average57 °F82%29.88 "Hg
* Reported Oct 8 4:20 PM — Oct 23 4:20 PM, Pulheim, Weather by CustomWeather, © 2014

Note: Actual official high and low records may vary slightly from our data, if they occured in-between our weather recording intervals... More about our weather records

Advertising

Pulheim weather history for previous 24 hours

 ConditionsComfort  
Time TempWeatherWind HumidityBarometerVisibility
4:20 PM
Oct 23
55 °FPartly sunny.2 mph77%30.21 "HgN/A
3:20 PM57 °FPartly sunny.5 mph72%30.21 "HgN/A
2:20 PM55 °FPartly sunny.7 mph77%30.21 "HgN/A
1:20 PM55 °FBroken clouds.6 mph72%30.24 "HgN/A
12:20 PM55 °FPartly sunny.2 mph72%30.24 "HgN/A
11:20 AM54 °FPartly sunny.5 mph77%30.24 "HgN/A
10:20 AM52 °FPartly sunny.2 mph77%30.24 "HgN/A
9:20 AM50 °FPartly sunny.1 mph82%30.21 "HgN/A
8:20 AM48 °FPassing clouds.3 mph87%30.21 "HgN/A
7:20 AM48 °FPassing clouds.1 mph87%30.18 "HgN/A
6:20 AM48 °FPassing clouds.3 mph87%30.18 "HgN/A
5:20 AM48 °FPassing clouds.6 mph87%30.18 "HgN/A
4:20 AM48 °FPassing clouds.8 mph87%30.21 "HgN/A
3:20 AM46 °FPassing clouds.6 mph93%30.21 "HgN/A
2:20 AM46 °FPassing clouds.8 mph87%30.21 "HgN/A
1:20 AM48 °FPassing clouds.7 mph87%30.18 "HgN/A
12:20 AM48 °FPassing clouds.7 mph87%30.18 "HgN/A
11:20 PM
Oct 22
48 °FPassing clouds.7 mph87%30.18 "HgN/A
10:20 PM48 °FPassing clouds.9 mph87%30.18 "HgN/A
9:20 PM48 °FPassing clouds.9 mph87%30.15 "HgN/A
8:20 PM48 °FPassing clouds.8 mph87%30.15 "HgN/A
7:20 PM48 °FScattered clouds.10 mph82%30.12 "HgN/A
6:20 PM50 °FBroken clouds.13 mph82%30.12 "HgN/A
5:20 PM52 °FBroken clouds.12 mph77%30.09 "HgN/A
Weather by CustomWeather, © 2014

See weather overviewHow to use our weather pages